Zurück zum Katalog

SUPERVIEW NEO-2 02

AktivWissenschaftSSO
NORAD 53130·PAYLOAD·🇨🇳 China

Gestartet Jul 15, 2022 von Taiyuan Satellite Launch Center

Loading…

Nächste Überflüge (nächste 24 Stunden)

TLE

AktuellSource: Space-Track

Epoche: Sep 14, 2026, 14:09 UTC

1 53130U 22082C   26257.58997527  .00002233  00000-0  93729-4 0  9994
2 53130  97.3934 266.4431 0001702  89.0435 271.0997 15.24506326231830

Verfolge SUPERVIEW NEO-2 02 in Echtzeit mit AllMySat

Download on the App Store